Regional Weather Roundup
Issued by NWS Little Rock, AR

Home | Current Version | Previous Version | Text Only | Print | Product List | Glossary Off
Versions: 1 2 3 4 5 6 7 8 9 10 11 12 13 14 15 16 17 18 19 20 21 22 23 24 25 26 27 28 29 30 31

000
ASUS44 KLZK 181405
RWRLZK

WEATHER ROUNDUP FOR ARKANSAS
NATIONAL WEATHER SERVICE LITTLE ROCK AR
900 AM CDT WED OCT 18 2017

NOTE: "FAIR" INDICATES FEW OR NO CLOUDS BELOW 12,000 FEET WITH NO
SIGNIFICANT WEATHER AND/OR OBSTRUCTIONS TO VISIBILITY.

ARZ001-003-010-029-181500-
NORTHWEST ARKANSAS

CITY           SKY/WX    TMP DP  RH WIND       PRES   REMARKS
FAYETTEVILLE   SUNNY     48  47  96 CALM      30.17R
FORT SMITH     SUNNY     51  47  86 NE6       30.19R
HARRISON       SUNNY     51  43  74 SE5       30.19R
BENTONVILLE    SUNNY     54  43  66 S6        30.19
ROGERS         SUNNY     53  43  68 S7        30.18R
SILOAM SPGS    SUNNY     52  43  71 SE5       30.17R
HIGHFILL       SUNNY     52  46  80 S3        30.17R
SPRINGDALE     SUNNY     54  43  66 CALM      30.18R
$$

ARZ004-005-016-181500-
NORTH CENTRAL ARKANSAS

CITY           SKY/WX    TMP DP  RH WIND       PRES   REMARKS
BATESVILLE     SUNNY     55  48  77 CALM      30.24R
FLIPPIN        SUNNY     45  41  86 CALM      30.22R
MTN HOME       SUNNY     53  45  74 S6        30.20R
$$

ARZ040-041-181500-
WEST CENTRAL ARKANSAS

CITY           SKY/WX    TMP DP  RH WIND       PRES   REMARKS
MENA           SUNNY     48  46  93 CALM      30.22R
$$

ARZ009-017-025-026-028-181500-
NORTHEAST ARKANSAS

CITY           SKY/WX    TMP DP  RH WIND       PRES   REMARKS
CORNING        FAIR      50  48  93 CALM      30.26R
JONESBORO      SUNNY     52  50  93 CALM      30.25R
NEWPORT        SUNNY     53  49  86 S5        30.25R
WALNUT RIDGE   SUNNY     51  47  86 CALM      30.26R
BLYTHEVILLE    SUNNY     57  50  77 S9        30.27R
NW BLYTHEVILLE SUNNY     55  48  76 S5        30.26R
$$

ARZ022-023-033-042-044-181500-
CENTRAL ARKANSAS

CITY           SKY/WX    TMP DP  RH WIND       PRES   REMARKS
LITTLE ROCK    SUNNY     53  51  93 CALM      30.24R
N LITTLE ROCK    N/A     56  50  78 S5        30.25R
JACKSONVILLE   SUNNY     51  48  89 CALM      30.23R
SEARCY         SUNNY     51  48  89 MISG      30.25R
HOT SPRINGS    FOG       48  48 100 CALM      30.23R VSB<1/4
RUSSELLVILLE   SUNNY     48  46  93 CALM      30.22R
CLINTON        FAIR      43  41  93 CALM      30.24S
$$

ARZ036-181500-
EAST ARKANSAS

CITY           SKY/WX    TMP DP  RH WIND       PRES   REMARKS
WEST MEMPHIS   SUNNY     57  52  83 S9        30.26R
$$

ARZ050-053-066-070-073-181500-
SOUTHWEST ARKANSAS

CITY           SKY/WX    TMP DP  RH WIND       PRES   REMARKS
ARKADELPHIA    FAIR      50  45  83 N5        30.24R
CAMDEN         SUNNY     52  45  76 CALM      30.23R
TEXARKANA      SUNNY     56  49  77 CALM      30.21R
EL DORADO      SUNNY     54  51  90 CALM      30.23R
DE QUEEN       SUNNY     49  48  97 CALM      30.20R
$$

ARZ056-057-069-181500-
SOUTHEAST ARKANSAS

CITY           SKY/WX    TMP DP  RH WIND       PRES   REMARKS
PINE BLUFF     SUNNY     52  48  86 SE5       30.24R
STUTTGART      SUNNY     57  51  80 SE7       30.25R
MONTICELLO     MOSUNNY   56  49  77 SE6       30.25R

$$






USA.gov is the U.S. government's official web portal to all federal, state and local government web resources and services.